Location: Almena City Lake
(39.8850°N, 99.6804°W)
Time: 00:33:18
(UTC+00:00)

Cosmos 1939 Rocket - Pass Details

Date: 18 February 2020
Orbit: 532 x 585 km, 97.4° (Epoch: 04 April)

Event Time Altitude Azimuth Distance (km) Brightness Sun altitude
Rises 01:41:00 0° 180° (S) 2,763 6.4 -16.8°
Reaches altitude 10° 01:43:11 10° 185° (S) 1,877 5.6 -17.2°
Maximum altitude 01:47:08 49° 261° (W) 756 3.9 -18.0°
Drops below altitude 10° 01:51:10 10° 337° (NNW) 1,911 5.9 -18.7°
Sets 01:53:24 0° 343° (NNW) 2,818 6.7 -19.2°
